Starlink 3267

operational
NORAD ID: 50197 Int'l Des: 2021-125 Owner: SPXS Country: US Constellation: starlink
LEOCIRCULAR

Über Starlink 3267

Beschreibung wird geladen...

Live-Position

3D-Globus wird geladen...

Nächste Überflüge

Höhenverlauf

Altitude vs Time

uPlot chart will show altitude changes over time

Zweizeiliger Elementsatz

1 50197U 21125AT 26061.00875374 .00009099 00000-0 58873-3 0 9993
2 50197 53.2155 273.6037 0001311 80.0677 280.0464 15.08859244235625
Epoch: 2. März 2026 • Age: 28 hours

Aktueller Status

Höhe 541.0 km
Geschwindigkeit 7.60 km/s
Subsatellitenpunkt 30.89°N, 156.74°W
Startdatum 18. Dez. 2021
Alter 4.2 years
Typ internet

Technische Details

Klassifizierung Payload
Masse 290.00 kg
Trockenmasse 270.00 kg
Gesamtmasse 290.00 kg
Länge 0.20 m
Durchmesser 2.80 m
Spannweite 9.00 m
Form Box + pan
Hersteller SPXS
Bus-Typ Starlink
Phasenstatus In Orbit
Besitzer/Staat SPXS/US

Große Konstellationen

Loading constellations...